Location: Fornova de Taro
(44.7000°N, 10.1000°E)
Time: 22:56:28
(UTC+00:00)

Cosmos 2297 - Pass Details

Date: 26 May 2022
Orbit: 834 x 859 km, 71.0° (Epoch: 02 July)

Event Time Altitude Azimuth Distance (km) Brightness Sun altitude
Rises 01:26:26 0° 334° (NNW) 3,445 7.3 -17.8°
Reaches altitude 10° 01:28:54 10° 334° (NNW) 2,505 6.6 -17.6°
Maximum altitude 01:34:41 87° 246° (WSW) 866 3.7 -17.0°
Drops below altitude 10° 01:40:25 10° 158° (SSE) 2,483 5.8 -16.5°
Enters shadow 01:41:47 - 158° (SSE) 3,001 6.3 -16.3°
